This is the latest recevied weather packets stored in our database for station/object NK7E-1. If no packets are shown the sender has not sent any weather packets the latest 10 day(s).
| Time | Temp. | Humidity | Pressure | Rain* | Wind** | Luminosity | Snow |
|---|---|---|---|---|---|---|---|
| 1777858201 | 28.89° C | 12% | 1010.7 hPa | 0 mm | - | - | - |
| 1777857600 | 29.44° C | 12% | 1010.5 hPa | 0 mm | - | - | - |
| 1777857002 | 30.56° C | 11% | 1010.7 hPa | 0 mm | - | - | - |
| 1777856404 | 30.56° C | 11% | 1010.7 hPa | 0 mm | - | - | - |
| 1777855802 | 30.56° C | 11% | 1010.7 hPa | 0 mm | - | - | - |
| 1777855202 | 30.56° C | 11% | 1010.8 hPa | 0 mm | - | - | - |
| 1777854601 | 30.56° C | 10% | 1010.7 hPa | 0 mm | - | - | - |
| 1777854002 | 30.56° C | 10% | 1010.6 hPa | 0 mm | - | - | - |
| 1777853402 | 31.11° C | 10% | 1010.7 hPa | 0 mm | - | - | - |
| 1777852802 | 31.67° C | 10% | 1010.5 hPa | 0 mm | - | - | - |
| 1777852200 | 31.67° C | 10% | 1010.5 hPa | 0 mm | - | - | - |
| 1777851600 | 31.67° C | 10% | 1010.4 hPa | 0 mm | - | - | - |
| 1777851000 | 32.22° C | 10% | 1010.3 hPa | 0 mm | - | - | - |
| 1777850400 | 32.22° C | 10% | 1010.4 hPa | 0 mm | - | - | - |
| 1777849800 | 32.22° C | 11% | 1010.3 hPa | 0 mm | - | - | - |
| 1777849200 | 32.22° C | 10% | 1010.4 hPa | 0 mm | - | - | - |
| 1777848599 | 32.78° C | 10% | 1010.4 hPa | 0 mm | - | - | - |
| 1777847999 | 32.78° C | 10% | 1010.5 hPa | 0 mm | - | - | - |
| 1777847399 | 32.78° C | 12% | 1010.6 hPa | 0 mm | - | - | - |
| 1777846800 | 32.78° C | 13% | 1010.9 hPa | 0 mm | - | - | - |
| 1777846199 | 32.78° C | 13% | 1010.8 hPa | 0 mm | - | - | - |
| 1777845600 | 32.78° C | 12% | 1010.7 hPa | 0 mm | - | - | - |
| 1777844999 | 32.22° C | 13% | 1010.6 hPa | 0 mm | - | - | - |
| 1777844400 | 32.22° C | 14% | 1010.9 hPa | 0 mm | - | - | - |
| 1777843799 | 31.67° C | 14% | 1011 hPa | 0 mm | - | - | - |
* Rain latest hour (hover to see other rain measurements)
** Current wind speed in m/s (hover to see current wind gust speed)